sat.trackr.live / text

‹ back to catalog

STARLINK-35871

NORAD 66566 · 2025-268K

PAYLOAD ACTIVE UNKNOWN

§ Identity

Operator
Country
US
Launch date
2025-11-21
Launch site
AFETR
Launch vehicle
Mass (kg)
RCS (m²)

Purposes: comms

External: N2YO · Heavens-Above · Gunter

§ Orbital elements

Epoch: 2026-05-24T17:47:44.275488Z

Period
94.27 min
Inclination
43.0009°
Eccentricity
0.0001357
Mean motion
15.27595231 rev/d
Perigee alt
482.1 km
Apogee alt
483.9 km
Semi-major
6,861.1 km
B*
5.6159e-4
RAAN
277.3233°
Arg perigee
264.2371°
Mean anomaly
95.8326°
Rev number
2,959

§ Raw data

STARLINK-358711 66566U 25268K   26144.74148467  .00015231  00000+0  56159-3 0  99902 66566  43.0009 277.3233 0001357 264.2371  95.8326 15.27595231 29593

JSON: /api/v1/satellites/66566 · /tle

For live sub-satellite position, see the globe view (requires WebGL).

§ Visibility from observer

Set your observer location to see the next 7 days of passes ≥ 10°. The values pass through the URL so the page stays shareable.

No JS? Fill the form by hand. The geolocation button needs JavaScript.